Radioactive Concentration measured by Seawater Radiation Monitor near Fukushima Daiichi Nuclear Power Station
Date,Time,Cs137(Bq/L),Cs134(Bq/L),Total β(Bq/L)
2016/11/16,00:00,0.96,0.14,ND
2016/11/16,00:10,0.96,0.14,ND
2016/11/16,00:20,1.0,0.12,ND
2016/11/16,00:30,0.94,0.14,8.9
2016/11/16,00:40,1.0,0.12,8.8
2016/11/16,00:50,1.0,0.12,10
2016/11/16,01:00,1.0,0.13,8.8
2016/11/16,01:10,1.0,0.14,9.7
2016/11/16,01:20,1.0,0.13,9.0
2016/11/16,01:30,1.0,0.13,ND
2016/11/16,01:40,0.99,0.14,9.0
2016/11/16,01:50,1.0,0.13,8.9
2016/11/16,02:00,1.0,0.13,11
2016/11/16,02:10,1.0,0.12,ND
2016/11/16,02:20,1.0,0.12,11
2016/11/16,02:30,1.0,0.11,10
2016/11/16,02:40,0.92,0.13,ND
2016/11/16,02:50,0.97,0.12,8.8
2016/11/16,03:00,0.99,0.12,ND
2016/11/16,03:10,0.97,0.12,8.9
2016/11/16,03:20,0.98,0.12,ND
2016/11/16,03:30,0.96,0.12,ND
2016/11/16,03:40,0.97,0.12,ND
2016/11/16,03:50,0.97,0.12,ND
2016/11/16,04:00,0.95,0.11,ND
2016/11/16,04:10,0.94,0.11,ND
2016/11/16,04:20,0.91,0.12,ND
2016/11/16,04:30,0.93,0.12,ND
2016/11/16,04:40,0.94,0.12,ND
2016/11/16,04:50,0.96,0.12,ND
2016/11/16,05:00,0.93,0.13,ND
2016/11/16,05:10,0.92,0.13,ND
2016/11/16,05:20,0.94,0.12,ND
2016/11/16,05:30,0.94,0.12,ND
2016/11/16,05:40,0.94,0.12,ND
2016/11/16,05:50,0.92,0.12,ND
2016/11/16,06:00,0.92,0.13,ND
2016/11/16,06:10,0.97,0.12,ND
2016/11/16,06:20,0.99,0.12,ND
2016/11/16,06:30,0.98,0.13,ND
2016/11/16,06:40,1.0,0.13,ND
2016/11/16,06:50,1.0,0.14,ND
2016/11/16,07:00,1.0,0.14,ND
2016/11/16,07:10,1.0,0.14,ND
2016/11/16,07:20,1.0,0.14,9.7
2016/11/16,07:30,1.0,0.14,9.6
2016/11/16,07:40,1.0,0.13,ND
2016/11/16,07:50,1.1,0.13,ND
2016/11/16,08:00,1.1,0.13,ND
2016/11/16,08:10,1.1,0.14,ND
2016/11/16,08:20,1.1,0.15,ND
2016/11/16,08:30,1.1,0.15,ND
2016/11/16,08:40,1.1,0.15,ND
2016/11/16,08:50,1.1,0.16,ND
2016/11/16,09:00,1.1,0.16,ND
2016/11/16,09:10,1.1,0.15,ND
2016/11/16,09:20,1.1,0.16,ND
2016/11/16,09:30,1.2,0.15,ND
2016/11/16,09:40,1.2,0.15,ND
2016/11/16,09:50,1.2,0.14,ND
2016/11/16,10:00,1.2,0.13,ND
2016/11/16,10:10,1.2,0.14,ND
2016/11/16,10:20,1.2,0.14,ND
2016/11/16,10:30,1.2,0.15,ND
2016/11/16,10:40,1.2,0.15,ND
2016/11/16,10:50,1.2,0.14,ND
2016/11/16,11:00,1.2,0.15,ND
2016/11/16,11:10,1.2,0.15,9.2
2016/11/16,11:20,1.2,0.16,ND
2016/11/16,11:30,1.2,0.17,ND
2016/11/16,11:40,1.2,0.16,ND
2016/11/16,11:50,1.2,0.17,ND
2016/11/16,12:00,1.1,0.16,ND
2016/11/16,12:10,1.1,0.15,ND
2016/11/16,12:20,1.1,0.15,ND
2016/11/16,12:30,1.1,0.14,ND
2016/11/16,12:40,1.1,0.14,ND
2016/11/16,12:50,1.0,0.12,ND
2016/11/16,13:00,1.0,0.12,ND
2016/11/16,13:10,0.98,0.11,ND
2016/11/16,13:20,0.95,0.11,ND
2016/11/16,13:30,0.90,0.11,ND
2016/11/16,13:40,0.88,0.11,ND
2016/11/16,13:50,0.90,0.11,ND
2016/11/16,14:00,0.92,0.096,ND
2016/11/16,14:10,0.89,0.12,ND
2016/11/16,14:20,0.87,0.12,ND
2016/11/16,14:30,0.88,0.12,ND
2016/11/16,14:40,0.88,0.11,ND
2016/11/16,14:50,0.87,0.12,ND
2016/11/16,15:00,0.87,0.12,ND
2016/11/16,15:10,0.89,0.11,ND
2016/11/16,15:20,0.91,0.10,ND
2016/11/16,15:30,0.94,0.10,ND
2016/11/16,15:40,0.90,0.11,ND
2016/11/16,15:50,0.90,0.12,ND
2016/11/16,16:00,0.89,0.13,ND
2016/11/16,16:10,0.84,0.13,ND
2016/11/16,16:20,0.91,0.12,ND
2016/11/16,16:30,0.93,0.12,ND
2016/11/16,16:40,0.94,0.12,ND
2016/11/16,16:50,0.96,0.11,ND
2016/11/16,17:00,0.96,0.10,ND
2016/11/16,17:10,0.96,0.094,ND
2016/11/16,17:20,0.95,0.10,ND
2016/11/16,17:30,0.93,0.095,ND
2016/11/16,17:40,0.92,0.097,ND
2016/11/16,17:50,0.90,0.095,ND
2016/11/16,18:00,0.94,0.083,ND
2016/11/16,18:10,0.94,0.084,ND
2016/11/16,18:20,0.95,0.079,ND
2016/11/16,18:30,0.94,0.085,ND
2016/11/16,18:40,0.94,0.090,ND
2016/11/16,18:50,0.97,0.093,ND
2016/11/16,19:00,0.94,0.10,ND
2016/11/16,19:10,0.92,0.11,ND
2016/11/16,19:20,0.92,0.12,ND
2016/11/16,19:30,0.90,0.12,ND
2016/11/16,19:40,0.92,0.12,ND
2016/11/16,19:50,0.91,0.13,ND
2016/11/16,20:00,0.92,0.14,ND
2016/11/16,20:10,0.93,0.14,ND
2016/11/16,20:20,0.98,0.15,ND
2016/11/16,20:30,1.1,0.14,ND
2016/11/16,20:40,1.1,0.15,ND
2016/11/16,20:50,1.2,0.14,ND
2016/11/16,21:00,1.2,0.14,ND
2016/11/16,21:10,1.2,0.14,ND
2016/11/16,21:20,1.2,0.15,ND
2016/11/16,21:30,1.2,0.16,ND
2016/11/16,21:40,1.2,0.17,ND
2016/11/16,21:50,1.2,0.16,ND
2016/11/16,22:00,1.2,0.17,10
2016/11/16,22:10,1.1,0.17,ND
2016/11/16,22:20,1.1,0.16,ND
2016/11/16,22:30,1.1,0.16,ND
2016/11/16,22:40,1.1,0.15,ND
2016/11/16,22:50,1.1,0.16,ND
2016/11/16,23:00,1.1,0.15,ND
2016/11/16,23:10,1.1,0.14,ND
2016/11/16,23:20,1.1,0.14,ND
2016/11/16,23:30,1.2,0.13,ND
2016/11/16,23:40,1.2,0.14,ND
2016/11/16,23:50,1.2,0.14,ND
